Glens Falls, NY

1:16 AM EST on December 11, 2017 (GMT -0500)
Bennett Memorial

Weather History for KGFL - February, 2013

Change the Weather History Date:

Wednesday, February 20, 2013

  Actual Average Record
Temperature  
Mean Temperature 28 °F 23 °F  
Max Temperature 33 °F 34 °F 58 °F (1981)
Min Temperature 23 °F 11 °F -23 °F (1966)
Degree Days  
Heating Degree Days 37 42  
Month to date heating degree days 881 895  
Since 1 July heating degree days 4826 5291  
Cooling Degree Days 0 0  
Month to date cooling degree days 0 0  
Year to date cooling degree days 0 0  
Moisture  
Dew Point 17 °F    
Average Humidity 71    
Maximum Humidity 92    
Minimum Humidity 50    
Precipitation  
Precipitation T in 0.07 in 0.72 in (1981)
Month to date precipitation 0.42 1.46  
Year to date precipitation 1.70 4.32  
Sea Level Pressure  
Sea Level Pressure 29.73 in    
Wind  
Wind Speed 9 mph (WSW)    
Max Wind Speed 17 mph    
Max Gust Speed 26 mph    
Visibility 10 miles    
Events Snow    
T = Trace of Precipitation, MM = Missing Value Source: NWS Daily Summary

Daily Weather History Graph

Daily Weather History Graph

Search for Another Location

Airport or City:

Trip Planner

Search our weather history database for the weather conditions in past years. The results will help you decide how hot, cold, wet, or windy it might be!

Date:

Astronomy

Feb. 20, 2013 Rise Set
Actual Time 6:44 AM EST 5:32 PM EST
Civil Twilight 6:15 AM EST 6:01 PM EST
Nautical Twilight 5:42 AM EST 6:34 PM EST
Astronomical Twilight 5:09 AM EST 7:07 PM EST
Moon 12:46 PM EST (2/20) 3:08 AM EST (2/20)
Length of Visible Light 11h 45m
Length of Day
10h 47m
Waxing Gibbous, 76% of the Moon is Illuminated
Feb 20
Waxing Gibbous
Feb 25
Full
Mar 4
Last Quarter
Mar 11
New
Mar 19
First Quarter

Hourly Weather History & Observations

Time (EST) Temp. Windchill Dew Point Humidity Pressure Visibility Wind Dir Wind Speed Gust Speed Precip Events Conditions
12:11 AM 33.8 °F 27.0 °F 28.4 °F 81% 29.62 in 10.0 mi WNW 8.1 mph - N/A   Overcast
12:53 AM 32.0 °F 24.2 °F 26.1 °F 79% 29.65 in 10.0 mi West 9.2 mph - 0.00 in   Overcast
1:53 AM 30.9 °F 26.2 °F 24.1 °F 76% 29.67 in 10.0 mi West 4.6 mph - N/A   Overcast
2:13 AM 30.2 °F 26.7 °F 24.8 °F 80% 29.65 in 10.0 mi Variable 3.5 mph - N/A   Overcast
2:26 AM 30.2 °F 25.4 °F 24.8 °F 80% 29.66 in 10.0 mi West 4.6 mph - N/A   Overcast
2:53 AM 28.9 °F - 24.1 °F 82% 29.69 in 10.0 mi Calm Calm - N/A   Overcast
3:53 AM 28.0 °F 24.2 °F 19.9 °F 72% 29.71 in 10.0 mi WSW 3.5 mph - N/A   Overcast
4:53 AM 27.0 °F 20.5 °F 19.9 °F 75% 29.71 in 10.0 mi SW 5.8 mph - N/A   Overcast
5:53 AM 25.0 °F 17.1 °F 18.0 °F 75% 29.70 in 10.0 mi SW 6.9 mph - N/A   Mostly Cloudy
6:53 AM 26.1 °F 18.4 °F 19.0 °F 75% 29.71 in 10.0 mi SSW 6.9 mph - N/A   Overcast
7:53 AM 26.1 °F 17.6 °F 18.0 °F 71% 29.71 in 10.0 mi SW 8.1 mph 16.1 mph N/A   Overcast
8:53 AM 26.1 °F 15.6 °F 17.1 °F 69% 29.72 in 10.0 mi WSW 11.5 mph 17.3 mph N/A   Mostly Cloudy
9:53 AM 26.1 °F 15.6 °F 17.1 °F 69% 29.72 in 10.0 mi WSW 11.5 mph - N/A   Overcast
10:53 AM 28.0 °F 20.0 °F 16.0 °F 61% 29.73 in 10.0 mi WSW 8.1 mph 19.6 mph N/A   Overcast
11:53 AM 28.0 °F 17.0 °F 15.1 °F 58% 29.72 in 10.0 mi West 13.8 mph 20.7 mph N/A   Overcast
12:53 PM 28.0 °F 17.0 °F 12.9 °F 53% 29.71 in 10.0 mi WSW 13.8 mph 20.7 mph N/A   Overcast
1:53 PM 26.6 °F 16.2 °F 17.6 °F 69% 29.70 in 3.0 mi West 11.5 mph 21.9 mph N/A Snow Light Snow
2:53 PM 28.0 °F 18.6 °F 12.9 °F 53% 29.74 in 10.0 mi WNW 10.4 mph 19.6 mph 0.00 in   Overcast
3:53 PM 26.6 °F 17.5 °F 14.0 °F 59% 29.73 in 10.0 mi WNW 9.2 mph - N/A   Overcast
4:53 PM 26.1 °F 15.6 °F 12.9 °F 58% 29.77 in 10.0 mi West 11.5 mph 18.4 mph 0.00 in   Overcast
5:53 PM 26.1 °F 19.4 °F 10.9 °F 53% 29.79 in 10.0 mi Variable 5.8 mph - N/A   Overcast
6:53 PM 25.0 °F 19.3 °F 10.9 °F 55% 29.81 in 10.0 mi WSW 4.6 mph - N/A   Overcast
7:53 PM 24.1 °F 15.2 °F 12.0 °F 60% 29.82 in 10.0 mi SSW 8.1 mph - N/A   Mostly Cloudy
8:53 PM 25.0 °F 14.2 °F 12.0 °F 58% 29.83 in 10.0 mi West 11.5 mph 18.4 mph N/A   Scattered Clouds
9:53 PM 24.8 °F 16.1 °F 12.2 °F 59% 29.81 in 10.0 mi WSW 8.1 mph - N/A   Scattered Clouds
10:53 PM 24.1 °F 13.7 °F 14.0 °F 65% 29.85 in 9.0 mi WSW 10.4 mph 19.6 mph 0.00 in Snow Light Snow
11:53 PM 23.0 °F 11.7 °F 15.1 °F 72% 29.85 in 9.0 mi WSW 11.5 mph 19.6 mph 0.00 in   Overcast